Torna al catalogo

DMSP 5D-2 F13 DEB

AttivoPO
NORAD 42278·DEBRIS·🇺🇸 United States

Lanciato Mar 24, 1995 da Vandenberg Space Force Base

Loading…

Prossimi Passaggi (prossime 24 ore)

TLE

AggiornatoSource: Space-Track

Epoca: Sep 14, 2026, 20:16 UTC

1 42278U 95015GU  26257.84491377  .00010210  00000-0  22192-2 0  9990
2 42278  98.8711 296.9252 0020946 339.3979  20.6372 14.58105565580775

Traccia DMSP 5D-2 F13 DEB in tempo reale con AllMySat

Download on the App Store